Date String (YYYY-MM-DD hh:mm:ss) UTC,Instrument flags,Ambient pressure (hPa),Sample flow (lpm),Bypass flow (lpm),Sample temperature (°C),Ambient temperature (°C),ASC tube jacket temperature (°C),LED temperature (°C),Box temperature (°C),Sample RH (%),Span deviation,Mass concentration (μg/m³),Mass concentration (μg/m³),Mass concentration (μg/m³)
DateTimeUTC,F1_M11,P_M11,Q1_M11,Q2_M11,T1_M11,T2_M11,T3_M11,T4_M11,T5_M11,U1_M11,ZSPAN_M11,X0_M11,X2_M11,X1_M11
2023-02-27 15:00:00,,0816.1,5.01,0.00,22.3,23.2,00.0,30.9,24.4,09.2,0000.0,0001.16,0000.49,0000.25
2023-02-27 15:01:00,,0816.2,5.02,0.00,22.4,22.9,00.0,31.0,24.4,09.0,0000.0,0001.02,0000.46,0000.24
2023-02-27 15:02:00,,0816.1,5.03,0.00,22.4,22.2,00.0,31.0,24.2,09.0,0000.0,0001.01,0000.46,0000.24
2023-02-27 15:03:00,,0816.1,5.00,0.00,22.4,21.6,00.0,31.0,24.0,09.0,0000.0,0001.53,0000.50,0000.24
2023-02-27 15:04:00,,0816.1,5.00,0.00,22.3,21.1,00.0,31.0,23.8,09.0,0000.0,0002.13,0000.53,0000.24
2023-02-27 15:05:00,,0816.2,4.99,0.00,22.2,20.8,00.0,31.0,23.7,09.0,0000.0,0001.98,0000.50,0000.24
2023-02-27 15:06:00,,0816.2,5.00,0.00,22.2,20.5,00.0,31.0,23.6,08.9,0000.0,0001.93,0000.49,0000.24
2023-02-27 15:07:00,,0816.3,5.01,0.00,22.1,20.3,00.0,31.0,23.5,09.0,0000.0,0002.03,0000.51,0000.25
2023-02-27 15:08:00,,0816.3,5.01,0.00,22.0,20.1,00.0,30.9,23.4,09.1,0000.0,0002.01,0000.49,0000.25
2023-02-27 15:09:00,,0816.4,5.01,0.00,22.0,20.5,00.0,30.9,23.5,08.9,0000.0,0002.02,0000.50,0000.26
2023-02-27 15:10:00,,0816.5,4.96,0.00,22.1,22.0,00.0,30.9,24.0,09.0,0000.0,0001.97,0000.49,0000.26
2023-02-27 15:11:00,,0816.4,5.00,0.00,22.3,23.1,00.0,30.9,24.3,09.2,0000.0,0001.97,0000.49,0000.26
2023-02-27 15:12:00,,0816.6,5.01,0.00,22.4,23.0,00.0,31.0,24.4,08.9,0000.0,0003.34,0000.55,0000.27
2023-02-27 15:13:00,,0816.5,5.01,0.00,22.4,22.3,00.0,31.0,24.2,08.7,0000.0,0003.97,0000.57,0000.27
2023-02-27 15:14:00,,0816.5,4.98,0.00,22.4,21.7,00.0,31.0,24.0,08.8,0000.0,0003.42,0000.53,0000.27
2023-02-27 15:15:00,,0816.6,4.99,0.00,22.3,21.3,00.0,31.0,23.9,08.9,0000.0,0002.90,0000.53,0000.27
2023-02-27 15:16:00,,0816.6,5.02,0.00,22.3,21.0,00.0,31.0,23.8,09.0,0000.0,0002.97,0000.56,0000.27
2023-02-27 15:17:00,,0816.6,5.00,0.00,22.2,20.7,00.0,31.0,23.7,08.8,0000.0,0003.95,0000.55,0000.27
2023-02-27 15:18:00,,0816.5,5.00,0.00,22.2,20.4,00.0,31.0,23.6,08.7,0000.0,0004.09,0000.54,0000.26
2023-02-27 15:19:00,,0816.8,5.00,0.00,22.1,20.2,00.0,31.0,23.5,08.7,0000.0,0004.10,0000.54,0000.27
2023-02-27 15:20:00,,0816.8,5.00,0.00,22.0,20.4,00.0,30.9,23.5,09.0,0000.0,0004.17,0000.52,0000.27
2023-02-27 15:21:00,,0816.7,4.97,0.00,22.1,21.8,00.0,30.9,23.9,09.0,0000.0,0004.15,0000.52,0000.26
2023-02-27 15:22:00,,0816.8,4.99,0.00,22.3,22.9,00.0,30.9,24.3,09.1,0000.0,0004.17,0000.53,0000.26
2023-02-27 15:23:00,,0816.7,4.98,0.00,22.4,23.2,00.0,31.0,24.4,09.0,0000.0,0002.80,0000.51,0000.26
2023-02-27 15:24:00,,0816.7,4.98,0.00,22.4,22.5,00.0,31.1,24.2,08.9,0000.0,0002.28,0000.50,0000.26
2023-02-27 15:25:00,,0816.9,5.02,0.00,22.4,22.0,00.0,31.1,24.1,08.8,0000.0,0002.29,0000.50,0000.26
2023-02-27 15:26:00,,0816.8,5.01,0.00,22.3,21.4,00.0,31.1,23.9,09.0,0000.0,0002.20,0000.46,0000.26
2023-02-27 15:27:00,,0816.8,4.99,0.00,22.3,21.0,00.0,31.1,23.8,09.0,0000.0,0002.14,0000.44,0000.26
2023-02-27 15:28:00,,0816.8,5.00,0.00,22.2,20.7,00.0,31.1,23.7,08.9,0000.0,0001.08,0000.46,0000.27
2023-02-27 15:29:00,,0816.8,5.00,0.00,22.2,20.5,00.0,31.0,23.6,08.7,0000.0,0001.01,0000.48,0000.27
2023-02-27 15:30:00,,0816.8,5.00,0.00,22.1,20.3,00.0,31.0,23.6,08.9,0000.0,0001.09,0000.49,0000.27
2023-02-27 15:31:00,,0816.7,5.00,0.00,22.1,20.2,00.0,31.0,23.5,08.9,0000.0,0001.05,0000.50,0000.27
2023-02-27 15:32:00,,0816.7,5.00,0.00,22.0,20.1,00.0,31.0,23.4,08.7,0000.0,0001.07,0000.51,0000.27
2023-02-27 15:33:00,,0816.7,4.99,0.00,22.0,20.6,00.0,30.9,23.5,08.8,0000.0,0001.21,0000.53,0000.27
2023-02-27 15:34:00,,0816.8,4.98,0.00,22.1,22.1,00.0,30.9,24.0,08.7,0000.0,0001.26,0000.52,0000.27
2023-02-27 15:35:00,,0817.1,5.10,0.00,22.3,23.4,00.0,30.9,24.3,08.6,0000.0,0001.22,0000.52,0000.28
2023-02-27 15:36:00,,0816.8,5.03,0.00,22.4,23.2,00.0,31.0,24.4,08.8,0000.0,0001.21,0000.53,0000.28
2023-02-27 15:37:00,,0816.8,5.01,0.00,22.4,22.5,00.0,31.0,24.2,08.8,0000.0,0001.32,0000.54,0000.28
2023-02-27 15:38:00,,0817.0,5.01,0.00,22.4,21.9,00.0,31.0,24.1,08.5,0000.0,0001.87,0000.56,0000.27
2023-02-27 15:39:00,,0816.8,5.00,0.00,22.3,21.5,00.0,31.1,23.9,08.5,0000.0,0001.81,0000.55,0000.27
2023-02-27 15:40:00,,0816.8,4.98,0.00,22.3,21.1,00.0,31.1,23.9,08.5,0000.0,0002.29,0000.53,0000.28
2023-02-27 15:41:00,,0816.8,5.00,0.00,22.3,20.8,00.0,31.0,23.8,08.6,0000.0,0003.02,0000.49,0000.27
2023-02-27 15:42:00,,0816.9,5.00,0.00,22.2,20.6,00.0,31.0,23.7,08.7,0000.0,0002.93,0000.47,0000.27
2023-02-27 15:43:00,,0816.9,4.99,0.00,22.2,20.4,00.0,31.0,23.6,08.8,0000.0,0002.97,0000.48,0000.27
2023-02-27 15:44:00,,0816.8,4.99,0.00,22.1,20.2,00.0,31.0,23.5,08.6,0000.0,0002.86,0000.45,0000.27
2023-02-27 15:45:00,,0816.9,5.01,0.00,22.1,20.4,00.0,31.0,23.5,08.7,0000.0,0002.83,0000.42,0000.26
2023-02-27 15:46:00,,0816.9,5.00,0.00,22.2,21.8,00.0,30.9,24.0,08.8,0000.0,0002.77,0000.40,0000.25
2023-02-27 15:47:00,,0817.0,4.99,0.00,22.3,23.1,00.0,31.0,24.4,08.5,0000.0,0002.75,0000.39,0000.25
2023-02-27 15:48:00,,0817.0,5.04,0.00,22.5,23.4,00.0,31.0,24.5,08.7,0000.0,0002.67,0000.40,0000.26
2023-02-27 15:49:00,,0817.0,5.01,0.00,22.5,22.7,00.0,31.1,24.4,08.7,0000.0,0002.27,0000.43,0000.26
2023-02-27 15:50:00,,0817.1,5.00,0.00,22.5,22.1,00.0,31.1,24.2,08.7,0000.0,0002.32,0000.44,0000.26
2023-02-27 15:51:00,,0817.0,4.98,0.00,22.4,21.6,00.0,31.1,24.1,08.7,0000.0,0001.76,0000.46,0000.25
2023-02-27 15:52:00,,0817.0,4.99,0.00,22.4,21.3,00.0,31.1,24.0,08.5,0000.0,0001.11,0000.47,0000.25
2023-02-27 15:53:00,,0817.1,5.00,0.00,22.3,21.0,00.0,31.1,23.9,08.6,0000.0,0001.19,0000.50,0000.26
2023-02-27 15:54:00,,0817.0,4.99,0.00,22.3,20.7,00.0,31.1,23.8,08.7,0000.0,0001.15,0000.49,0000.26
2023-02-27 15:55:00,,0817.1,5.00,0.00,22.3,20.6,00.0,31.1,23.8,08.5,0000.0,0001.12,0000.48,0000.26
2023-02-27 15:56:00,,0817.1,4.99,0.00,22.2,20.4,00.0,31.1,23.7,08.5,0000.0,0001.03,0000.49,0000.26
2023-02-27 15:57:00,,0817.1,4.99,0.00,22.2,20.3,00.0,31.0,23.6,08.9,0000.0,0001.04,0000.49,0000.26
2023-02-27 15:58:00,,0817.1,5.01,0.00,22.1,20.1,00.0,31.0,23.6,08.8,0000.0,0001.02,0000.49,0000.26
2023-02-27 15:59:00,,0817.1,5.00,0.00,22.1,20.1,00.0,31.0,23.5,08.9,0000.0,0001.04,0000.48,0000.25
